Wind_Speed
28 26 27 26 25 25 23 21 20 21 23 23 22 22 21 19 16 10 9 5 4 9 8 1 4 9 12 10 7 7 7 8 8 8 6 10 10 12 11 9 4 15 10 11
30 32 29 29 28 28 28 25 23 23 24 24 24 23 22 20 17 14 9 8 6 13 15 11 12 6 6 9 9 4 2 5 7 6 6 9 6 10 15 16 16 17 16 14
33 35 32 31 31 32 31 30 26 28 29 27 27 25 25 23 18 16 13 9 10 11 18 16 11 12 12 8 14 10 7 4 4 7 5 2 3 4 3 5 5 7 11 11
33 35 36 35 35 37 37 32 28 31 32 31 31 29 27 25 22 18 15 13 15 14 18 22 10 12 10 11 6 12 11 11 10 6 6 7 8 8 8 8 8 6 6 7
34 36 39 37 40 39 39 36 32 32 34 35 33 35 29 28 27 24 17 17 18 18 18 23 25 20 18 18 15 13 18 20 19 15 13 11 10 11 10 10 8 8 6 9
36 35 37 38 37 42 40 36 35 36 36 37 38 34 29 8 31 26 23 20 19 22 22 22 25 28 29 27 26 24 24 23 25 26 20 19 19 17 16 15 16 14 8 9
37 36 36 36 37 39 37 38 37 37 37 38 39 36 29 26 33 37 29 27 26 23 23 26 28 27 27 33 33 34 33 29 32 31 29 26 26 25 23 22 21 24 23 18
34 36 37 35 34 34 34 35 36 38 38 40 33 38 33 33 30 37 32 33 30 28 26 26 27 29 29 30 31 36 40 38 37 35 37 34 32 32 34 31 27 26 26 28
35 35 34 34 35 34 37 34 37 38 39 38 37 21 33 36 42 39 37 36 35 33 32 29 27 28 31 30 30 32 35 40 44 41 40 37 40 44 39 37 39 36 33 30
34 32 30 33 34 37 39 35 37 36 37 35 37 39 32 39 44 40 36 37 38 38 37 35 34 33 31 32 33 33 33 35 36 39 44 47 45 46 50 46 43 44 40 36
34 34 31 31 32 33 34 33 33 34 32 30 34 30 15 25 45 42 38 37 37 37 38 39 40 40 39 37 36 38 38 39 40 42 43 44 47 49 51 53 51 47 50 49
35 34 31 33 32 34 32 32 31 29 23 14 22 24 31 38 43 38 39 36 36 36 37 39 42 42 43 43 42 42 42 40 40 41 40 42 45 48 53 55 56 56 56 54
33 35 32 33 34 32 33 32 32 26 29 25 33 38 37 40 40 40 39 38 39 38 36 39 39 40 40 38 40 42 39 39 41 43 43 44 45 46 48 54 58 58 57 58
34 37 36 38 33 30 31 35 34 31 33 34 25 23 42 40 41 41 41 40 41 41 38 40 38 37 35 36 38 41 40 42 44 46 45 45 47 49 51 49 48 51 51 51
39 39 42 37 37 29 11 36 31 35 35 37 37 42 45 44 42 43 43 43 43 41 41 39 33 30 32 35 39 41 40 44 47 50 50 48 46 47 49 51 51 51 51 50
42 43 41 39 41 34 38 38 40 39 40 41 41 40 44 43 44 44 45 45 42 39 36 31 31 36 40 38 35 40 43 47 50 49 51 50 49 49 48 47 46 43 43 46
46 43 41 38 38 37 38 38 38 40 40 41 41 43 42 44 44 45 44 44 43 34 33 35 39 41 43 43 46 48 46 47 47 48 49 49 51 52 51 51 49 49 49 51
45 40 39 34 33 38 36 39 38 40 41 41 42 43 43 43 44 43 44 44 43 40 33 34 39 42 46 48 48 48 48 49 50 49 50 51 51 52 53 53 52 53 56 58
43 42 40 35 29 34 37 38 41 43 42 42 43 44 44 43 43 43 45 43 43 40 40 38 39 40 42 44 46 48 50 51 51 52 52 53 53 54 54 55 57 60 61 62
46 43 37 34 34 31 21 41 41 44 41 41 42 42 41 43 43 39 44 42 42 40 39 39 36 37 38 39 39 42 46 49 50 50 51 52 53 54 57 60 62 63 61 62
45 38 32 30 30 28 42 47 41 44 38 39 40 41 41 41 41 39 38 38 41 39 36 35 34 34 36 37 38 39 41 43 45 48 52 54 57 60 62 62 59 60 61 58
38 34 31 23 5 22 35 42 39 39 39 39 40 40 40 39 40 35 35 35 40 35 35 36 36 36 35 36 37 40 43 47 50 54 57 57 57 56 56 59 61 55 57 59
40 37 31 28 34 46 42 39 40 39 38 38 38 39 36 37 36 36 34 35 38 33 34 37 37 37 38 39 42 44 48 51 54 54 54 55 57 59 59 55 54 58 62 64
41 40 35 31 37 40 39 38 36 36 37 38 38 36 35 33 37 37 34 34 37 38 37 38 38 39 40 42 46 51 52 53 54 56 58 58 53 48 51 55 60 63 66 64
40 39 35 33 33 36 36 36 35 36 36 32 30 30 34 37 36 34 35 35 37 39 40 41 42 43 45 49 52 53 55 56 56 52 50 49 52 57 60 63 65 66 65 60
42 39 38 34 35 34 33 33 31 29 28 29 33 37 39 38 38 36 34 35 36 38 40 41 43 47 50 50 51 50 48 47 47 50 53 58 62 65 68 68 66 61 59 60
Wind_Direction
251 252 258 262 266 270 272 276 284 292 298 301 303 305 311 315 321 314 311 307 267 215 184 333 350 27 352 23 61 102 124 153 172 170 172 210 192 229 241 236 195 275 276 299
248 250 252 257 262 267 270 275 278 283 287 295 299 299 303 308 317 314 299 284 255 217 211 207 253 315 311 304 311 142 324 140 129 128 154 184 202 239 241 247 250 248 264 294
245 249 251 254 257 263 266 272 278 280 284 286 293 297 299 301 308 308 297 274 262 226 222 213 246 300 303 273 291 260 243 223 180 153 155 50 233 233 237 268 292 314 275 269
243 246 247 249 251 257 263 273 276 279 282 286 290 290 293 295 298 297 295 276 263 248 227 223 233 280 264 246 290 260 251 250 259 257 240 204 200 212 226 231 243 305 276 285
244 243 245 245 249 255 262 267 274 274 277 282 287 292 292 303 298 292 286 286 267 253 246 237 227 237 266 253 246 248 266 255 262 256 247 235 242 241 233 228 249 259 276 280
245 248 246 248 252 255 259 265 267 269 273 278 284 289 301 267 264 289 283 282 276 266 249 244 247 256 251 246 255 257 253 257 251 251 238 237 237 233 248 249 251 257 237 235
243 245 246 250 252 256 261 263 265 269 273 276 283 288 287 264 263 278 286 283 278 270 260 249 247 249 261 258 248 245 251 256 256 245 244 240 244 246 242 248 252 258 258 255
245 246 248 250 253 256 261 260 263 265 269 277 277 282 287 279 273 282 283 280 277 273 268 261 257 253 252 260 265 256 252 253 256 257 249 250 244 246 251 254 248 249 256 257
244 245 246 248 252 255 255 256 261 267 270 274 276 283 281 275 271 281 283 280 280 274 269 269 266 263 263 260 262 266 261 256 253 249 250 255 262 262 253 251 251 254 252 256
246 248 246 248 249 253 258 260 261 267 272 276 275 267 289 297 285 280 279 280 281 277 272 269 271 268 266 266 266 265 266 266 263 262 261 260 256 258 263 262 256 251 253 258
242 246 248 250 252 254 259 262 265 269 276 280 283 271 255 221 268 281 282 284 284 279 274 272 271 270 270 267 266 265 267 266 267 269 272 270 264 259 259 265 267 263 261 261
243 248 247 251 253 256 260 263 267 269 269 287 284 276 252 265 276 278 281 283 282 281 279 276 275 276 275 273 273 270 269 267 267 265 271 270 270 268 267 265 266 267 267 267
241 245 245 248 251 252 254 257 259 257 256 227 256 287 279 273 277 280 283 285 285 283 283 281 281 278 278 278 277 276 274 274 273 273 273 271 266 267 268 267 265 267 270 268
239 244 247 250 256 263 262 256 258 259 259 257 260 299 276 277 280 282 284 285 285 286 289 281 280 283 283 278 274 271 276 277 280 283 278 275 270 268 272 274 272 271 270 271
236 240 247 248 253 252 233 263 264 262 261 259 262 261 269 277 280 282 285 286 286 284 279 280 280 278 272 264 263 269 271 273 277 280 281 280 278 277 280 280 279 278 277 276
234 239 240 245 251 248 253 267 267 268 267 267 270 270 274 279 282 282 283 284 285 283 282 279 264 254 256 263 265 266 270 272 275 278 280 278 275 278 280 277 275 272 272 276
231 235 242 245 251 257 257 262 268 270 272 273 274 276 279 281 283 286 287 288 290 280 273 277 276 267 269 264 267 270 273 271 272 273 275 275 276 280 286 288 287 286 284 281
237 240 244 248 259 258 262 264 268 269 270 273 277 279 280 282 283 285 286 289 291 291 285 282 281 275 270 268 269 271 273 274 276 279 282 283 284 284 285 284 283 282 283 286
240 242 246 246 232 269 265 268 267 270 275 279 279 281 281 282 285 288 287 289 289 289 291 288 285 282 278 273 272 273 273 275 277 280 281 281 281 282 284 284 288 290 289 288
240 244 249 250 258 270 289 273 272 273 276 277 278 280 282 283 285 285 288 287 286 288 285 285 286 283 282 282 278 275 273 274 276 278 280 282 284 286 287 288 288 288 288 288
243 248 251 250 267 260 238 266 274 274 277 276 279 280 282 286 288 284 280 284 284 285 286 288 290 288 284 282 282 281 281 282 283 284 285 287 289 289 289 288 287 287 288 287
247 247 242 237 286 293 268 269 268 272 275 276 278 281 284 289 292 293 292 288 287 286 288 292 293 293 291 288 287 288 289 289 289 289 289 288 287 286 287 287 288 288 288 290
243 246 242 241 226 237 258 267 273 277 277 278 278 280 285 291 297 299 298 292 287 287 294 297 296 293 291 291 292 291 290 290 290 290 289 290 289 289 287 286 284 286 288 291
241 243 242 232 234 254 261 274 275 276 277 277 279 284 288 293 299 298 298 295 291 291 294 297 297 294 293 293 293 294 293 292 291 291 291 290 289 286 286 288 290 291 292 290
244 245 247 249 255 261 269 274 278 279 282 287 288 292 295 297 295 296 296 290 288 290 293 296 296 295 293 294 294 293 292 292 292 291 290 288 288 289 290 291 290 289 289 286
244 245 246 252 255 265 272 278 277 278 285 292 298 298 300 300 300 300 292 288 288 290 293 294 293 293 293 293 294 294 294 294 293 292 292 292 291 291 292 292 291 289 287 288
Height
10972 10973 10974 10975 10975 10975 10976 10978 10978 10976 10974 10973 10972 10971 10971 10970 10971 10971 10968 10964 10961 10961 10960 10961 10960 10959 10959 10960 10961 10961 10958 10957 10957 10957 10956 10958 10958 10958 10958 10958 10958 10958 10958 10957
10967 10967 10970 10970 10971 10971 10971 10974 10975 10974 10972 10970 10969 10968 10969 10969 10969 10968 10968 10963 10960 10960 10958 10958 10959 10959 10959 10959 10961 10960 10960 10959 10957 10957 10957 10957 10957 10957 10956 10957 10957 10957 10956 10957
10961 10961 10966 10967 10968 10966 10966 10967 10970 10969 10968 10967 10966 10966 10966 10967 10968 10966 10966 10964 10959 10957 10956 10956 10957 10957 10957 10957 10958 10958 10959 10959 10959 10958 10957 10957 10957 10956 10954 10955 10955 10955 10954 10955
10955 10956 10959 10961 10962 10960 10959 10964 10966 10964 10962 10962 10961 10962 10964 10965 10965 10964 10963 10963 10958 10956 10955 10954 10954 10954 10955 10956 10956 10956 10956 10957 10958 10957 10957 10957 10956 10954 10953 10952 10953 10952 10951 10952
10948 10949 10950 10954 10955 10955 10956 10958 10961 10960 10957 10956 10957 10955 10960 10961 10961 10962 10960 10959 10957 10954 10953 10952 10951 10951 10952 10953 10953 10953 10954 10954 10954 10955 10954 10954 10953 10952 10951 10951 10951 10948 10949 10950
10940 10942 10945 10947 10949 10948 10951 10954 10954 10953 10952 10951 10950 10952 10958 10962 10954 10955 10955 10954 10953 10950 10950 10949 10948 10946 10946 10946 10948 10949 10949 10949 10949 10950 10949 10950 10948 10948 10947 10948 10948 10948 10946 10945
10931 10935 10937 10940 10942 10943 10946 10948 10947 10948 10947 10946 10946 10947 10952 10953 10951 10951 10945 10947 10947 10945 10943 10941 10941 10940 10938 10937 10938 10940 10941 10942 10943 10944 10943 10943 10943 10944 10944 10941 10942 10942 10940 10943
10924 10928 10930 10933 10935 10937 10939 10940 10940 10941 10942 10939 10944 10939 10943 10942 10940 10939 10936 10939 10939 10937 10935 10933 10933 10932 10931 10930 10930 10931 10931 10932 10933 10935 10936 10936 10937 10936 10938 10937 10935 10935 10934 10934
10916 10919 10923 10926 10928 10930 10928 10933 10934 10934 10934 10936 10937 10936 10936 10936 10933 10930 10929 10930 10929 10929 10928 10927 10926 10925 10924 10923 10921 10921 10921 10921 10922 10924 10925 10925 10927 10928 10928 10928 10927 10928 10928 10928
10910 10913 10916 10917 10921 10922 10922 10927 10927 10929 10929 10931 10930 10928 10935 10933 10927 10925 10923 10920 10919 10918 10918 10917 10917 10916 10916 10914 10913 10913 10912 10911 10912 10913 10914 10913 10915 10916 10916 10917 10918 10918 10919 10920
10902 10905 10909 10911 10914 10915 10916 10919 10921 10922 10923 10923 10921 10926 10940 10920 10918 10917 10915 10913 10910 10909 10908 10907 10905 10904 10904 10905 10904 10903 10901 10902 10902 10902 10901 10900 10901 10903 10903 10903 10904 10906 10906 10907
10896 10899 10903 10904 10908 10908 10911 10912 10915 10916 10918 10915 10910 10916 10917 10918 10911 10910 10906 10904 10902 10901 10899 10898 10895 10895 10894 10892 10892 10892 10892 10893 10891 10890 10890 10889 10887 10888 10889 10889 10889 10889 10890 10892
10890 10890 10896 10898 10899 10902 10904 10907 10907 10911 10910 10913 10902 10907 10906 10904 10901 10899 10897 10895 10892 10891 10891 10889 10887 10884 10883 10883 10880 10878 10879 10879 10878 10877 10877 10876 10876 10875 10874 10875 10875 10874 10874 10876
10882 10883 10886 10887 10895 10899 10899 10898 10901 10903 10902 10903 10910 10915 10894 10896 10893 10890 10887 10886 10883 10882 10881 10876 10874 10873 10873 10872 10870 10867 10867 10866 10864 10863 10862 10862 10862 10861 10860 10860 10860 10860 10860 10860
10873 10875 10874 10884 10885 10893 10891 10886 10893 10894 10895 10895 10896 10895 10889 10888 10886 10881 10878 10875 10873 10872 10868 10867 10865 10864 10862 10859 10856 10857 10857 10855 10853 10851 10849 10849 10848 10847 10846 10844 10844 10844 10843 10842
10864 10867 10873 10877 10879 10887 10884 10882 10883 10884 10884 10885 10885 10887 10880 10878 10874 10872 10869 10865 10863 10861 10858 10856 10854 10849 10845 10848 10848 10846 10846 10844 10841 10839 10837 10836 10835 10834 10832 10831 10830 10829 10829 10827
10853 10861 10865 10871 10874 10877 10878 10878 10877 10875 10875 10874 10873 10871 10870 10866 10863 10860 10857 10853 10851 10850 10846 10845 10843 10841 10838 10838 10837 10835 10834 10832 10830 10829 10826 10824 10822 10819 10815 10812 10810 10809 10810 10811
10848 10857 10860 10867 10869 10868 10872 10870 10871 10867 10865 10863 10861 10860 10858 10856 10853 10850 10846 10843 10839 10837 10836 10833 10831 10828 10826 10825 10824 10822 10820 10818 10816 10814 10811 10809 10807 10804 10801 10798 10796 10796 10794 10791
10843 10848 10854 10863 10863 10862 10863 10865 10862 10857 10856 10855 10852 10849 10847 10846 10843 10840 10835 10833 10830 10827 10824 10821 10819 10816 10812 10811 10810 10808 10806 10804 10802 10800 10797 10795 10793 10789 10786 10782 10779 10776 10776 10772
10834 10840 10849 10855 10859 10862 10860 10855 10854 10848 10850 10845 10842 10839 10838 10835 10835 10834 10825 10823 10820 10818 10815 10813 10810 10807 10804 10800 10799 10797 10794 10793 10791 10789 10785 10781 10779 10775 10771 10767 10764 10759 10755 10752
10827 10835 10843 10849 10851 10855 10852 10850 10847 10840 10841 10837 10833 10829 10828 10826 10823 10821 10818 10814 10810 10808 10806 10803 10801 10797 10794 10791 10788 10786 10784 10781 10778 10775 10771 10768 10764 10758 10754 10749 10746 10742 10737 10733
10825 10830 10836 10842 10841 10832 10840 10838 10836 10832 10830 10827 10824 10822 10820 10817 10813 10809 10806 10804 10800 10799 10796 10793 10790 10787 10784 10780 10778 10775 10772 10768 10765 10761 10757 10753 10750 10745 10739 10734 10729 10725 10721 10716
10817 10821 10829 10831 10838 10833 10831 10829 10826 10824 10821 10818 10816 10814 10812 10808 10804 10801 10798 10794 10791 10789 10786 10783 10780 10777 10773 10769 10766 10763 10760 10755 10751 10746 10741 10736 10732 10728 10724 10719 10714 10712 10705 10700
10807 10810 10815 10819 10821 10822 10822 10821 10818 10814 10811 10808 10807 10806 10803 10799 10796 10793 10788 10785 10782 10779 10777 10774 10771 10767 10763 10759 10755 10750 10745 10741 10736 10731 10725 10721 10716 10711 10708 10705 10697 10690 10685 10680
10801 10801 10807 10809 10810 10811 10813 10809 10806 10803 10801 10799 10798 10796 10794 10791 10787 10784 10780 10777 10773 10771 10768 10764 10761 10757 10753 10748 10743 10737 10731 10726 10722 10716 10711 10706 10701 10695 10690 10686 10680 10671 10666 10661
10789 10793 10796 10801 10801 10802 10801 10799 10796 10795 10794 10793 10791 10788 10785 10782 10777 10774 10771 10768 10765 10762 10759 10755 10751 10747 10742 10736 10731 10724 10718 10713 10708 10702 10697 10691 10683 10676 10669 10662 10656 10652 10646 10638